Location: Strawberry
(45.6646°N, 111.9596°W)
Time: 13:36:56
(UTC+00:00)

Transit 4A - Pass Details

Date: 10 October 2022
Orbit: 871 x 973 km, 66.8° (Epoch: 26 November)

Event Time Altitude Azimuth Distance (km) Brightness Sun altitude
Exits shadow 09:57:15 - 339° (NNW) 2,979 10.7 -37.6°
Reaches altitude 10° 09:59:12 10° 354° (N) 2,553 10.4 -37.4°
Maximum altitude 10:02:13 14° 25° (NNE) 2,260 10.4 -36.9°
Drops below altitude 10° 10:05:11 10° 56° (NE) 2,531 10.9 -36.5°
Sets 10:09:02 0° 81° (E) 3,461 11.7 -35.9°
